Погода в Цахуре

Россия / Республика Дагестан     41°39′04″N   47°08′09″E
темп.,
°C
ветер,
м/с
пор.,
м/с
влажн.,
%
обл.,
%
осадки,
мм/ч
давл.,
гПа
погр.,
м
21 апреля, ср
ср2100:00+3зюз3285100 0.0 101927
03:00+2з228986 0.0 101913
06:00+3зсз2284100 0.0 101926
09:00+10юз4125818 0.0 10161696
12:00+12юз7134625 0.0 10162051
15:00+12юз6124799 0.0 10141878
18:00+6юз239676 3.6 1018222
21:00+4юз3283100 3.8 101926
22 апреля, чт
чт2200:00+3зюз2292100 0.1 102019
03:00+3зюз228961 0.1 102021
06:00+4зюз228335 0.1 102037
09:00+10юз511472 0.1 10171950
12:00+11юз613457 0.1 10172150
15:00+11юз594693 0.1 10161979
18:00+7з2281100 0.8 1018287
21:00+5ю2391100 2.6 1018256
23 апреля, пт
пт2300:00+3зюз229722 0.4 101749
03:00+2зюз22943 0.8 101729
06:00+2зюз339799 0.6 1018193
09:00+4юз458897 0.8 1017532
12:00+8юз615410 0.1 10152322
15:00+7юз514424 0.1 10162092
18:00+4юз49591 0.0 10191278
21:00+1зюз33791 0.0 102159
24 апреля, сб
сб2400:000зюз22790 0.0 102140
03:00−1зюз33680 0.0 102060
06:000зюз337014 0.0 1020134
09:00+5юз445859 0.0 1018525
12:00+8юз411454 0.0 10161581
15:00+8юз511440 0.0 10161634
18:00+5зюз33600 0.0 1019189
21:00+2з22758 0.0 102117
25 апреля, вс
вс2500:00+1з22835 0.0 102122
03:00+1з22837 0.0 102118
06:00+3з2274100 0.0 102064
09:00+8юз345311 0.0 1017671
12:00+11юз4942100 0.0 10151659
15:00+11юз4113694 0.0 10151752
18:00+8юз3359100 0.0 101593
21:00+5зюз2271100 0.0 101722